Weather History for Girona, Spain

Change the Weather History Date:

Thursday, March 13, 2014

  Actual Average Record
Temperature  
Mean Temperature 53 °F -  
Max Temperature 65 °F 64 °F 75 °F (1997)
Min Temperature 41 °F 42 °F 33 °F (1998)
Degree Days  
Heating Degree Days 12    
Growing Degree Days 3 (Base 50)    
Moisture  
Dew Point 42 °F    
Average Humidity 70    
Maximum Humidity 93    
Minimum Humidity 35    
Precipitation  
Precipitation 0.00 in 0.08 in - ()
Sea Level Pressure  
Sea Level Pressure 30.33 in    
Wind  
Wind Speed 3 mph ()    
Max Wind Speed 9 mph    
Max Gust Speed -    
Visibility 6.6 miles    
Events      
Averages and records for this station are not official NWS values.
T = Trace of Precipitation, MM = Missing Value Source: Averaged Metar Reports

Daily Weather History Graph

Daily Weather History Graph

Search for Another Location

Airport:

Trip Planner

Search our weather history database for the weather conditions in past years. The results will help you decide how hot, cold, wet, or windy it might be!

Date:

Astronomy

Mar. 13, 2014 Rise Set
Actual Time 7:04 AM CET 6:52 PM CET
Civil Twilight 6:36 AM CET 7:20 PM CET
Nautical Twilight 6:04 AM CET 7:53 PM CET
Astronomical Twilight 5:31 AM CET 8:25 PM CET
Moon 4:02 PM CET (3/13) 5:05 AM CET (3/13)
Length of Visible Light 12h 43m
Length of Day
11h 48m
Waxing Gibbous, 90% of the Moon is Illuminated
Mar 13
Waxing Gibbous
Mar 16
Full
Mar 24
Last Quarter
Mar 30
New
Apr 7
First Quarter

Hourly Weather History & Observations

Time (CET) Temp. Windchill Dew Point Humidity Pressure Visibility Wind Dir Wind Speed Gust Speed Precip Events Conditions
12:00 AM 46 °F - 37 °F 62% 30.37 in - North 3.5 mph - -  
12:00 AM 46.4 °F 45.2 °F 37.4 °F 71% 30.36 in 6.2 mi North 3.5 mph - N/A   Partly Cloudy
12:30 AM 46.4 °F 43.5 °F 37.4 °F 71% 30.36 in 6.2 mi North 5.8 mph - N/A   Partly Cloudy
1:00 AM 47 °F - 39 °F 65% 30.37 in - North 4.6 mph - -  
1:00 AM 46.4 °F 45.2 °F 39.2 °F 76% 30.36 in 6.2 mi North 3.5 mph - N/A   Partly Cloudy
1:30 AM 46.4 °F 45.2 °F 39.2 °F 76% 30.36 in 6.2 mi NNW 3.5 mph - N/A   Partly Cloudy
2:00 AM 46 °F - 41 °F 76% 30.37 in - North 2.3 mph - -  
2:00 AM 46.4 °F - 41.0 °F 81% 30.36 in 6.2 mi Variable 2.3 mph - N/A   Partly Cloudy
2:30 AM 46.4 °F - 41.0 °F 81% 30.36 in 6.2 mi North 1.2 mph - N/A   Partly Cloudy
3:00 AM 46 °F - 42 °F 83% 30.36 in - North 2.3 mph - -  
3:00 AM 44.6 °F - 41.0 °F 87% 30.36 in 6.2 mi North 2.3 mph - N/A   Partly Cloudy
3:30 AM 46.4 °F - 42.8 °F 87% 30.36 in 6.2 mi Variable 1.2 mph - N/A   Scattered Clouds
4:00 AM 47 °F - 43 °F 82% 30.34 in 9 mi NNW 2.3 mph - -   Scattered Clouds
4:00 AM 46.4 °F - 42.8 °F 87% 30.33 in 6.2 mi Variable 1.2 mph - N/A   Partly Cloudy
4:30 AM 48.2 °F - 42.8 °F 82% 30.33 in 6.2 mi Variable 1.2 mph - N/A   Partly Cloudy
5:00 AM 47 °F - 44 °F 85% 30.33 in - North 2.3 mph - -  
5:00 AM 46.4 °F - 42.8 °F 87% 30.33 in 6.2 mi North 2.3 mph - N/A   Scattered Clouds
5:30 AM 44.6 °F - 41.0 °F 87% 30.33 in 6.2 mi NNE 1.2 mph - N/A   Scattered Clouds
6:00 AM 46 °F - 43 °F 87% 30.34 in - North 4.6 mph - -  
6:00 AM 46.4 °F 45.2 °F 42.8 °F 87% 30.33 in 6.2 mi North 3.5 mph - N/A   Scattered Clouds
6:30 AM 44.6 °F - 41.0 °F 87% 30.33 in 6.2 mi Variable 2.3 mph - N/A   Scattered Clouds
7:00 AM 42 °F - 40 °F 91% 30.35 in 9 mi North 2.3 mph - -   Scattered Clouds
7:00 AM 42.8 °F - 39.2 °F 87% 30.33 in 6.2 mi North 1.2 mph - N/A   Partly Cloudy
7:30 AM 41.0 °F - 39.2 °F 93% 30.36 in 6.2 mi NNE 2.3 mph - N/A   Partly Cloudy
8:00 AM 46 °F - 43 °F 84% 30.36 in - NNW 2.3 mph - -  
8:00 AM 44.6 °F - 42.8 °F 93% 30.36 in 6.2 mi Variable 2.3 mph - N/A   Partly Cloudy
8:30 AM 46.4 °F - 42.8 °F 87% 30.36 in 6.2 mi Calm Calm - N/A   Partly Cloudy
9:00 AM 52 °F - 44 °F 66% 30.37 in - Calm Calm - -  
9:00 AM 50.0 °F - 42.8 °F 76% 30.36 in 6.2 mi Calm Calm - N/A   Partly Cloudy
9:30 AM 51.8 °F - 44.6 °F 76% 30.36 in 6.2 mi Variable 1.2 mph - N/A   Partly Cloudy
10:00 AM 55 °F - 46 °F 62% 30.37 in 9 mi NNE 8.1 mph - -   Scattered Clouds
10:00 AM 53.6 °F - 46.4 °F 77% 30.39 in 6.2 mi NNE 8.1 mph - N/A   Partly Cloudy
10:30 AM 55.4 °F - 46.4 °F 72% 30.39 in 6.2 mi NNE 8.1 mph - N/A   Partly Cloudy
11:00 AM 58 °F - 46 °F 54% 30.36 in - NNE 6.9 mph - -  
11:00 AM 55.4 °F - 44.6 °F 67% 30.36 in 6.2 mi NNE 5.8 mph - N/A   Partly Cloudy
11:30 AM 57.2 °F - 44.6 °F 63% 30.36 in 6.2 mi NNE 3.5 mph - N/A   Scattered Clouds
12:00 PM 57 °F - 45 °F 55% 30.36 in - NNE 4.6 mph - -  
12:00 PM 55.4 °F - 44.6 °F 67% 30.36 in 6.2 mi NE 5.8 mph - N/A   Scattered Clouds
12:30 PM 55.4 °F - 44.6 °F 67% 30.36 in 6.2 mi Variable 2.3 mph - N/A   Mostly Cloudy
1:00 PM 61 °F - 44 °F 43% 30.34 in 9 mi East 2.3 mph - -   Partly Cloudy
1:00 PM 59.0 °F - 42.8 °F 55% 30.36 in 6.2 mi East 3.5 mph - N/A   Scattered Clouds
1:30 PM 59.0 °F - 42.8 °F 55% 30.33 in 6.2 mi North 1.2 mph - N/A   Scattered Clouds
2:00 PM 61 °F - 43 °F 40% 30.31 in - NNE 4.6 mph - -  
2:00 PM 59.0 °F - 42.8 °F 55% 30.33 in 6.2 mi NE 5.8 mph - N/A   Scattered Clouds
2:30 PM 60.8 °F - 42.8 °F 52% 30.30 in 6.2 mi NNE 4.6 mph - N/A   Scattered Clouds
3:00 PM 65 °F - 44 °F 35% 30.29 in - East 4.6 mph - -  
3:00 PM 62.6 °F - 42.8 °F 48% 30.30 in 6.2 mi ENE 1.2 mph - N/A   Partly Cloudy
3:30 PM 59.0 °F - 42.8 °F 55% 30.30 in 6.2 mi East 5.8 mph - N/A   Partly Cloudy
4:00 PM 63 °F - 44 °F 38% 30.28 in 9 mi ENE 5.8 mph - -   Scattered Clouds
4:00 PM 60.8 °F - 42.8 °F 52% 30.30 in 6.2 mi East 4.6 mph - N/A   Partly Cloudy
4:30 PM 60.8 °F - 44.6 °F 55% 30.30 in 6.2 mi SE 8.1 mph - N/A   Partly Cloudy
5:00 PM 62 °F - 46 °F 44% 30.27 in - SSE 6.9 mph - -  
5:00 PM 59.0 °F - 44.6 °F 59% 30.27 in 6.2 mi SSE 5.8 mph - N/A   Partly Cloudy
5:30 PM 59.0 °F - 44.6 °F 59% 30.27 in 6.2 mi SSE 9.2 mph - N/A   Partly Cloudy
6:00 PM 58 °F - 43 °F 47% 30.28 in - SE 6.9 mph - -  
6:00 PM 57.2 °F - 42.8 °F 59% 30.27 in 6.2 mi SE 6.9 mph - N/A   Partly Cloudy
6:30 PM 55.4 °F - 41.0 °F 58% 30.30 in 6.2 mi SSE 4.6 mph - N/A   Partly Cloudy
7:00 PM 53 °F - 40 °F 52% 30.30 in 7 mi South 3.5 mph - -   Scattered Clouds
7:00 PM 51.8 °F - 41.0 °F 67% 30.30 in 6.2 mi SSE 3.5 mph - N/A   Partly Cloudy
7:30 PM 51.8 °F - 39.2 °F 62% 30.30 in - Variable 2.3 mph - N/A   Clear
8:00 PM 49 °F - 39 °F 59% 30.31 in - Calm Calm - -  
8:00 PM 48.2 °F - 39.2 °F 71% 30.30 in - Calm Calm - N/A   Clear
8:30 PM 48.2 °F - 39.2 °F 71% 30.30 in 6.2 mi Calm Calm - N/A   Partly Cloudy
9:00 PM 45 °F - 40 °F 75% 30.32 in - Calm Calm - -  
9:00 PM 46.4 °F - 41.0 °F 81% 30.30 in 6.2 mi Calm Calm - N/A   Partly Cloudy
9:30 PM 42.8 °F - 39.2 °F 87% 30.33 in 6.2 mi NE 1.2 mph - N/A   Partly Cloudy
10:00 PM 44 °F - 39 °F 76% 30.32 in 12 mi Calm Calm - -   Scattered Clouds
10:00 PM 44.6 °F - 39.2 °F 81% 30.33 in 6.2 mi Calm Calm - N/A   Partly Cloudy
10:30 PM 41.0 °F - 37.4 °F 87% 30.33 in 6.2 mi Variable 1.2 mph - N/A   Partly Cloudy
11:00 PM 43 °F - 39 °F 80% 30.33 in - Calm Calm - -  
11:00 PM 42.8 °F - 37.4 °F 81% 30.33 in 6.2 mi Calm Calm - N/A   Partly Cloudy
11:30 PM 42.8 °F - 39.2 °F 87% 30.33 in 6.2 mi Calm Calm - N/A   Partly Cloudy